RH
9 10 9 9 10 13 15 15 16 15 16 16 17 18 19 21 24 25 24 23 22 21 21 22 26 29 30 28 22 18 17 17 14 12 12 11 11 10 11 11 14 17 20 23 24 25 24 23 23 22 23 22 23 22 22 21 19 21 19 20 21 19 42 64 77 92 75 53 50 50 74 97 101 102 90 76 71 67 53 46 45 36 37 39 42 42 43 62
10 11 10 9 9 10 13 15 16 16 16 16 16 17 18 18 19 21 21 20 20 20 21 21 22 26 29 30 27 22 18 17 16 15 13 12 11 11 11 10 10 12 14 17 20 21 22 22 23 21 22 22 21 22 21 22 20 21 20 19 23 18 30 58 60 60 57 46 53 67 82 96 106 103 91 93 87 69 56 50 39 33 44 44 47 62 70 73
10 11 12 11 10 10 11 14 16 17 16 16 16 16 16 17 17 19 19 19 19 19 21 21 21 23 26 29 29 28 23 19 17 16 16 14 12 12 12 11 10 10 11 12 14 16 18 19 20 21 21 21 21 21 20 21 21 19 22 19 20 19 24 49 48 31 42 66 85 93 94 100 103 99 104 105 87 77 72 57 39 34 44 42 50 86 100 75
11 11 12 13 12 12 11 12 14 16 17 17 16 16 15 16 16 17 18 18 19 20 21 22 21 21 23 27 28 29 28 24 19 16 17 16 14 14 13 13 11 10 10 10 11 12 14 16 17 18 19 20 20 20 20 19 21 19 20 19 19 20 19 32 32 20 50 90 103 102 96 98 102 105 105 85 69 73 67 57 51 42 43 45 57 93 100 66
11 11 11 12 13 13 13 12 13 14 16 17 17 17 16 15 16 15 17 18 18 19 20 21 22 21 21 24 26 28 30 28 22 18 18 17 15 15 14 15 14 11 11 10 10 10 11 12 13 15 15 18 18 18 20 18 19 19 19 19 19 19 19 21 18 32 81 108 100 94 89 92 105 102 84 77 84 77 64 70 71 49 35 47 80 101 85 57
12 11 11 11 13 13 14 14 13 14 14 16 17 18 17 16 16 15 15 16 17 18 19 21 20 20 20 21 24 25 29 29 26 23 19 17 17 16 15 16 16 14 12 11 10 10 10 10 10 12 13 14 16 16 17 18 18 18 18 18 18 18 18 20 16 30 71 98 99 91 89 96 100 88 72 78 93 90 91 91 66 37 22 46 95 97 70 63
13 12 12 11 12 12 13 14 14 15 14 15 16 17 18 18 17 16 15 15 16 16 17 19 19 19 18 20 22 23 28 27 26 27 23 20 19 17 16 15 16 16 15 13 12 11 10 10 10 10 11 11 12 14 14 16 16 16 17 16 17 18 16 18 17 18 32 65 96 96 95 97 84 73 56 47 65 84 95 84 49 27 32 69 105 85 64 77
14 13 13 12 12 11 12 12 13 14 14 15 15 15 17 18 19 18 17 15 15 16 15 17 18 18 16 18 20 21 25 24 24 28 25 24 22 19 18 16 16 16 16 15 14 13 11 10 11 9 9 10 10 11 12 13 14 14 15 15 15 15 15 15 14 17 15 38 84 89 80 74 61 54 43 39 63 81 84 74 45 30 60 98 103 77 67 81
16 15 15 14 13 12 12 11 11 12 13 14 15 15 15 16 18 19 19 18 17 16 16 16 17 16 15 16 17 19 22 21 23 26 25 25 27 24 21 18 17 16 16 16 15 14 14 12 11 11 9 10 9 10 10 10 12 12 13 13 14 13 14 15 12 16 12 28 72 78 59 46 39 44 52 59 65 73 74 55 34 42 87 110 85 69 73 80
18 18 17 16 15 14 13 12 12 11 11 12 13 14 15 15 16 17 18 19 19 19 18 17 17 16 15 14 15 17 18 19 22 23 23 24 27 29 26 22 18 17 16 16 16 15 15 14 13 13 11 11 10 10 10 10 10 10 12 11 13 13 12 14 12 14 11 16 36 41 34 29 45 76 86 71 53 57 55 31 32 52 78 85 66 67 82 84
21 20 19 19 18 17 16 14 13 12 11 11 11 11 12 14 15 15 16 17 18 19 19 19 18 17 16 15 14 15 16 18 19 19 21 21 23 28 30 27 22 20 18 16 17 16 15 16 15 15 13 12 11 11 10 10 10 9 10 10 11 12 12 13 12 12 13 12 12 13 18 16 40 77 74 52 38 35 40 44 56 60 60 61 65 84 100 92
21 21 21 20 20 19 18 17 16 15 14 12 11 11 10 11 12 14 15 15 16 16 17 18 19 19 17 17 15 14 15 17 17 16 19 19 19 23 27 30 27 23 21 19 17 16 16 16 16 16 15 14 13 13 12 10 11 9 9 10 10 10 11 12 11 12 11 12 12 9 13 12 22 43 41 38 38 32 51 76 68 57 64 70 82 101 105 85
17 18 19 20 20 20 20 19 19 17 17 15 14 12 11 11 11 11 12 13 15 14 15 15 16 17 17 18 17 16 16 15 15 14 16 17 18 19 21 27 29 28 25 22 19 17 17 16 16 16 15 16 15 14 14 13 12 10 9 9 9 10 9 10 10 11 11 11 12 9 10 11 14 28 35 37 39 42 56 67 55 57 80 91 98 106 98 73
15 15 15 16 17 18 19 19 20 19 19 18 17 15 13 12 11 11 11 11 12 13 14 14 14 15 15 17 17 17 17 16 15 14 14 15 16 17 17 21 25 29 29 27 23 19 18 17 16 16 16 16 16 16 16 14 13 11 11 10 9 9 8 9 9 8 10 9 10 11 9 10 10 16 30 35 34 39 45 50 57 68 89 101 102 104 92 67
15 14 13 13 13 14 15 16 17 19 19 20 19 18 16 15 13 12 11 11 11 11 12 13 13 13 13 14 15 16 16 16 16 15 14 13 14 15 16 17 19 24 28 30 28 23 20 18 17 16 16 16 15 16 17 15 14 13 13 13 11 10 8 8 9 8 9 9 8 9 8 10 10 8 18 25 21 26 35 51 64 65 82 102 102 102 90 65
14 14 13 13 13 12 12 12 13 15 16 18 19 19 18 17 16 14 13 12 11 11 10 11 12 12 12 13 14 14 15 15 16 16 16 14 13 14 15 15 16 18 23 28 30 28 24 20 19 18 16 17 16 16 17 16 16 15 15 15 12 11 10 8 9 8 7 8 7 8 8 7 8 9 12 16 17 20 25 38 54 62 80 101 102 102 93 61
12 13 13 13 13 13 12 12 12 12 13 14 15 17 18 18 18 17 15 14 13 12 11 11 11 10 11 12 13 15 15 15 16 15 15 15 14 14 14 14 14 15 17 22 27 30 29 24 21 20 19 18 16 16 16 16 16 17 15 14 13 11 11 10 9 9 7 8 7 6 8 6 7 7 10 16 13 11 18 26 44 57 69 90 100 103 96 60
13 12 12 12 13 13 13 12 12 12 12 12 13 13 15 16 17 17 17 16 15 14 13 12 11 11 10 11 12 13 15 16 17 16 15 15 15 14 14 13 14 14 14 17 21 26 29 29 25 22 22 21 19 18 16 16 15 16 16 14 13 12 11 11 10 9 9 8 8 7 6 7 7 5 11 17 9 15 30 31 40 52 60 86 100 101 100 66
14 14 13 12 12 12 12 12 12 12 13 13 12 12 12 13 13 15 15 16 16 15 15 14 13 12 11 11 11 10 12 15 16 18 17 16 15 14 14 13 13 14 13 14 17 20 24 28 29 29 29 25 21 20 17 15 14 15 16 15 14 13 12 13 11 11 11 10 9 9 8 7 7 7 10 14 16 26 34 31 38 50 65 95 103 100 102 73
14 15 15 14 13 12 12 12 12 12 13 13 13 13 13 12 12 12 13 13 15 15 16 15 14 13 13 13 12 11 11 11 13 15 17 17 16 15 14 13 13 13 14 13 14 17 19 22 28 35 37 30 21 20 18 14 13 14 15 16 15 14 13 13 13 12 12 12 11 10 10 8 8 9 10 16 24 28 36 50 48 42 71 104 102 98 102 83
15 16 17 18 17 15 13 12 12 12 12 12 13 13 13 13 13 13 12 12 12 13 14 15 15 14 14 15 14 13 12 11 11 11 13 15 16 15 14 13 13 13 13 14 13 13 16 20 26 32 34 32 25 21 19 15 14 15 15 16 14 13 14 12 13 13 13 13 12 13 11 9 10 9 10 20 40 52 52 56 42 39 84 107 96 97 100 97
15 17 18 21 20 19 17 14 13 12 12 12 12 13 13 13 14 13 13 13 12 11 11 12 13 14 15 16 15 14 14 13 12 11 11 12 13 13 14 14 14 15 14 13 14 13 14 19 26 26 25 27 29 25 21 17 15 16 17 17 14 13 13 12 13 12 14 15 13 14 11 11 10 8 21 37 64 87 67 51 57 71 101 101 87 93 91 97
15 16 18 20 22 21 20 18 15 13 13 13 13 12 13 13 13 14 13 14 13 12 12 11 11 12 13 14 15 15 15 14 13 13 12 11 11 11 12 13 13 15 15 14 15 15 16 19 21 22 20 20 24 27 25 20 17 18 19 18 14 13 12 12 14 12 14 15 13 14 10 12 9 13 50 67 67 79 68 73 95 96 103 96 83 90 85 94
18 17 17 18 20 21 21 21 19 17 14 13 12 12 13 12 12 13 13 14 14 13 13 12 12 11 11 12 12 14 15 15 15 15 15 13 12 12 11 12 12 12 14 15 16 17 21 22 18 18 18 18 18 22 26 26 23 21 22 20 15 13 12 11 12 12 14 13 13 14 11 14 11 16 55 61 45 60 75 95 107 97 104 102 91 95 88 92
20 20 20 19 19 19 20 21 21 21 19 15 14 12 12 13 12 13 13 13 14 14 13 13 13 13 12 12 11 11 12 13 14 15 16 15 14 14 13 12 11 11 12 13 14 18 24 25 20 18 18 19 18 18 22 27 29 27 24 21 15 13 12 11 11 12 13 13 13 14 13 14 13 19 40 42 47 79 96 101 104 102 104 95 91 98 95 102
23 23 23 23 21 20 19 19 20 21 21 20 18 15 13 12 12 12 13 13 13 13 14 13 14 14 13 13 12 11 11 10 12 13 14 15 15 15 16 14 14 12 11 11 11 14 20 24 24 22 20 20 21 19 18 22 28 31 28 23 17 14 12 9 10 12 12 13 13 13 14 14 12 19 38 55 77 99 106 103 101 102 100 92 93 92 88 98
24 24 25 25 24 23 20 19 18 18 20 21 21 20 18 15 14 13 13 13 12 12 14 13 13 14 14 14 14 12 12 11 10 11 12 13 14 15 16 16 16 15 13 11 11 11 14 19 22 24 24 23 24 22 20 19 22 27 30 26 20 15 13 10 9 11 13 13 13 13 13 14 13 14 26 50 74 86 96 104 103 102 102 100 101 96 91 96
24 24 26 27 26 26 24 21 19 18 18 18 19 21 21 20 18 16 14 14 12 12 14 13 13 13 13 14 14 14 14 13 12 11 11 11 12 12 14 15 16 16 15 13 14 12 12 13 16 20 23 24 27 26 22 19 18 22 25 25 23 17 13 11 8 9 12 12 12 13 13 14 14 13 13 23 49 76 89 90 90 99 103 102 103 102 102 100
25 24 25 26 27 28 27 25 22 20 19 18 18 18 19 21 20 19 19 15 13 13 15 14 13 13 13 13 13 14 14 14 14 13 13 12 11 11 11 12 13 14 15 16 16 15 15 14 12 13 16 20 24 25 24 21 19 20 19 19 23 21 14 11 9 8 11 12 12 12 14 14 13 15 14 11 30 69 96 95 89 95 99 99 102 102 102 99
25 25 25 25 26 28 28 27 25 23 21 20 19 18 18 18 19 21 21 18 15 15 14 14 13 12 13 13 13 13 13 13 14 15 15 14 13 12 11 10 11 12 12 15 16 16 17 17 16 13 13 15 17 19 22 22 22 22 19 16 20 21 16 12 10 8 9 11 13 12 12 15 14 14 15 12 14 36 79 105 96 82 80 83 93 102 103 97
23 25 26 26 26 27 28 29 27 26 25 23 21 20 19 19 19 19 20 19 19 18 15 14 15 14 13 13 13 13 13 13 13 14 15 15 15 14 13 12 10 10 9 11 14 15 16 18 19 18 15 14 13 14 16 20 25 26 21 15 15 18 17 15 12 8 7 9 13 13 12 13 15 14 13 15 14 12 42 85 88 74 76 82 94 105 103 93
19 21 24 27 27 28 30 30 29 28 28 27 25 23 22 22 21 20 19 18 19 20 18 17 16 15 14 13 12 13 13 13 13 13 13 14 15 15 15 14 12 11 11 10 10 11 13 15 18 19 18 17 15 14 12 14 20 23 22 16 13 15 16 17 15 9 7 8 11 13 12 13 14 15 13 13 16 10 19 56 78 84 95 98 101 103 99 97
16 17 20 24 28 30 32 32 31 30 30 31 30 29 27 26 25 22 19 18 19 19 20 19 17 17 16 14 12 13 14 12 12 13 13 13 14 14 15 15 14 14 12 10 10 10 10 11 15 17 19 19 18 18 16 13 13 16 18 16 14 14 15 17 18 12 8 8 11 12 11 13 13 14 15 12 15 14 16 33 51 74 98 98 95 98 102 105
13 14 16 19 24 29 32 35 34 32 32 33 33 33 33 33 30 25 20 19 21 19 18 19 18 19 19 16 14 15 15 14 13 13 13 13 13 13 14 14 15 15 14 12 11 11 11 10 11 12 16 17 18 21 21 17 14 12 12 13 12 12 13 15 16 14 11 10 12 12 10 13 13 13 15 13 13 15 18 26 33 51 71 72 75 89 101 105
12 13 14 15 18 24 29 33 35 34 34 34 34 35 36 38 35 29 23 21 22 21 19 19 18 18 19 18 18 17 16 15 14 14 13 14 14 12 12 13 14 15 15 15 13 12 12 11 10 9 11 14 15 18 21 20 17 12 10 10 10 10 11 12 14 13 12 12 11 9 10 13 13 13 14 12 12 12 14 25 35 39 40 41 48 65 92 107
13 13 13 14 15 17 23 28 33 35 35 36 37 37 38 38 36 32 28 26 26 24 22 21 20 18 18 18 19 19 18 17 17 17 14 14 14 12 11 12 14 14 14 15 14 14 14 13 11 9 9 11 12 14 17 19 19 15 11 10 9 10 10 10 12 11 10 12 10 8 10 12 13 14 12 11 12 11 11 18 26 28 31 33 31 41 74 94
13 13 14 14 14 15 17 21 27 32 35 37 37 38 40 39 36 34 33 33 32 29 24 23 22 21 20 18 19 19 19 18 18 18 15 14 14 12 12 12 13 14 13 13 14 14 15 15 12 11 11 11 10 11 13 15 18 17 14 12 11 10 9 8 10 9 8 10 10 8 9 11 13 14 13 12 11 11 12 13 12 16 26 31 25 26 45 60
14 15 14 14 14 15 16 17 21 25 30 35 37 39 42 42 40 39 38 38 38 33 29 27 27 27 24 19 18 20 20 18 18 20 17 15 15 13 12 13 13 14 13 13 13 12 13 15 14 12 12 12 9 9 11 12 14 17 17 16 15 12 9 7 8 8 7 8 10 9 8 10 12 14 13 12 11 12 12 12 10 10 15 20 18 20 28 42
15 15 15 15 15 16 17 17 18 20 24 28 33 37 41 43 43 42 40 41 40 37 34 32 32 32 28 22 22 24 24 20 17 20 19 15 16 15 13 13 14 15 14 12 13 12 12 14 14 13 12 12 10 9 11 11 11 14 16 16 16 15 12 8 7 7 7 7 10 11 10 9 11 14 15 12 11 14 12 12 12 10 11 10 11 15 18 34
16 16 16 16 16 17 17 17 18 18 20 23 25 29 35 39 42 42 42 42 42 41 39 35 34 35 32 28 26 27 27 24 19 21 22 18 16 16 15 14 14 15 15 13 12 12 12 12 13 13 12 11 11 10 11 13 12 12 13 14 14 15 15 11 8 8 7 6 8 11 11 11 12 13 15 13 12 14 12 11 11 11 12 9 9 13 11 33
16 16 17 18 18 18 18 18 19 19 20 21 21 23 26 30 35 38 40 41 42 43 42 39 36 37 37 33 29 28 30 31 26 22 22 21 17 15 16 16 15 15 16 15 13 12 12 11 11 12 12 11 11 12 12 13 13 11 10 12 12 14 15 14 10 8 9 7 7 10 12 15 16 14 14 14 13 13 13 12 11 11 12 9 9 13 8 25
17 17 18 19 20 20 20 20 20 20 21 21 21 22 23 24 26 29 33 35 38 40 40 40 39 38 38 36 32 30 30 33 32 26 23 21 17 16 17 18 17 16 16 16 14 12 11 11 12 12 12 11 11 12 12 13 13 11 9 10 10 11 13 13 10 8 9 8 6 9 12 18 19 14 13 14 13 12 12 13 13 11 11 10 9 12 10 13
18 18 20 20 21 22 22 22 21 21 22 22 22 23 23 23 23 24 26 27 30 32 32 34 35 35 35 34 33 31 29 30 32 31 27 21 18 17 17 16 17 17 16 16 14 12 12 12 12 12 12 11 11 11 12 13 14 13 12 11 10 9 10 11 10 8 8 8 7 7 10 19 23 16 12 14 13 12 12 12 13 11 10 10 9 10 12 10
19 20 21 21 22 23 23 24 23 23 24 24 24 24 24 25 24 24 25 24 24 26 25 26 28 28 29 29 30 30 29 29 29 30 29 24 19 18 16 15 17 18 15 14 14 13 13 12 11 12 11 11 10 11 11 13 14 14 13 12 11 9 8 9 10 9 8 7 7 6 7 15 23 20 14 14 14 14 13 12 12 11 9 8 9 10 10 11
20 21 22 23 23 24 25 26 26 26 26 26 26 26 26 26 26 26 26 26 25 25 24 24 24 23 23 24 24 24 24 25 25 25 26 24 21 18 16 15 18 18 15 13 14 13 13 11 10 11 11 11 11 11 11 11 12 13 12 12 11 9 8 8 9 10 11 9 8 6 5 10 18 21 19 17 15 15 15 13 12 12 10 8 9 10 10 11
20 21 23 24 25 26 26 27 28 28 29 29 29 29 28 28 28 28 28 28 27 26 26 25 24 23 22 21 20 20 19 19 19 19 20 21 20 18 17 17 19 19 18 17 16 12 10 10 9 10 10 11 11 11 10 10 11 12 12 13 12 10 8 7 8 9 10 12 11 8 6 7 12 17 18 16 13 14 16 15 13 12 9 8 8 9 10 11
21 22 23 25 26 27 28 29 29 30 31 31 31 31 31 31 30 30 29 29 28 27 26 26 24 23 22 20 19 19 18 16 16 16 16 16 16 16 16 17 18 19 19 20 19 14 10 9 9 9 9 11 11 11 10 9 9 11 12 13 13 12 10 7 6 6 7 9 11 10 7 8 9 12 15 13 11 13 15 13 11 10 7 7 8 9 10 10
22 23 24 26 28 28 29 30 30 32 32 32 33 33 33 33 32 32 30 29 29 28 27 26 25 24 22 21 20 19 19 19 18 17 16 15 14 13 13 14 14 15 16 18 18 16 11 9 8 8 8 9 10 10 10 9 9 10 11 12 13 14 12 9 6 6 6 6 8 9 8 8 8 10 13 14 12 13 14 12 10 9 7 6 8 9 10 11
22 24 25 27 29 29 31 32 32 34 34 34 35 34 34 34 33 33 31 30 30 28 27 26 24 23 22 22 22 22 21 21 19 18 16 15 13 11 11 11 10 11 11 12 14 14 11 9 8 8 8 8 9 10 9 8 8 9 10 10 12 13 12 9 6 6 6 6 7 10 10 9 8 9 10 14 17 15 12 12 13 12 9 7 9 10 9 9
24 26 26 29 31 31 34 34 35 36 36 37 38 37 36 36 35 34 32 31 30 28 26 25 23 24 24 24 25 24 22 20 18 16 14 13 12 10 9 9 9 9 9 9 10 10 10 10 9 8 7 8 8 9 9 9 8 8 9 9 10 12 11 9 6 6 7 6 7 9 12 11 9 9 8 12 20 19 13 15 19 17 10 7 9 11 10 9
26 28 27 29 31 32 34 35 36 38 39 39 40 38 38 37 35 34 32 30 30 28 27 28 28 29 30 29 26 23 20 18 15 13 11 10 9 9 8 8 8 8 8 8 8 8 8 9 9 8 7 8 9 9 8 8 8 8 9 9 9 10 11 10 8 7 7 8 7 8 11 12 11 11 9 8 16 23 21 20 23 19 12 10 11 11 10 9
26 28 28 30 31 31 33 33 34 36 36 37 38 37 38 36 34 34 34 34 34 33 33 33 32 31 29 26 24 20 18 15 12 10 9 8 8 7 7 7 7 7 7 7 7 7 7 8 8 7 7 7 9 9 8 7 7 7 8 9 10 10 11 11 9 8 8 8 8 7 9 11 12 13 12 6 9 20 25 25 24 18 13 15 18 16 12 10
Wind_Speed
37 38 38 39 40 40 41 42 42 43 43 44 44 44 44 44 43 42 41 39 37 35 34 32 32 32 32 32 31 30 29 29 31 33 34 37 39 41 45 47 47 48 48 47 46 46 45 44 43 42 41 40 38 37 36 34 33 33 32 30 29 28 26 22 21 19 18 18 16 19 24 25 24 22 23 26 26 25 27 28 29 29 29 32 34 36 37 35
38 39 39 40 41 42 42 42 43 44 44 45 45 45 45 45 45 44 43 42 40 38 37 35 35 34 34 35 34 33 32 31 31 32 33 36 37 37 41 45 47 48 48 48 49 48 47 46 45 44 43 42 41 40 39 37 36 36 35 33 32 31 29 26 24 22 20 20 20 22 23 23 23 22 23 24 24 26 28 29 31 31 30 32 35 36 34 30
40 40 41 41 42 42 43 44 44 44 45 45 46 46 46 46 46 46 45 44 43 41 40 38 37 37 37 37 36 36 35 34 34 33 33 35 36 35 37 40 44 47 48 49 50 49 48 47 46 45 44 44 43 42 41 40 39 38 36 35 34 33 32 29 26 25 22 20 21 22 21 21 22 22 21 23 25 25 28 32 33 32 31 33 36 33 27 29
41 42 42 42 43 43 44 45 45 46 46 46 47 47 47 47 47 47 46 46 45 44 42 41 40 39 39 39 39 39 38 38 37 35 34 35 35 35 35 36 40 44 45 47 49 49 48 47 47 46 46 45 44 43 42 42 40 40 38 38 37 35 35 32 28 27 24 22 22 20 20 22 22 22 23 26 27 25 29 34 34 33 32 34 35 30 25 33
43 43 43 44 44 45 45 46 47 47 47 48 48 48 48 48 49 48 48 48 47 46 45 44 43 42 42 41 41 41 40 41 39 37 37 36 35 36 36 35 36 40 42 44 47 48 48 48 49 48 48 46 46 45 44 43 42 42 41 40 40 38 38 35 32 29 25 24 27 26 25 21 20 23 24 24 25 27 30 31 32 33 34 36 32 26 28 36
44 45 45 45 46 46 46 47 47 48 49 49 49 49 49 49 50 49 49 49 48 48 47 47 46 44 44 43 43 43 42 43 42 41 40 38 37 37 37 37 36 37 40 41 43 45 46 47 48 49 48 47 47 46 46 46 45 45 44 43 43 41 41 39 36 34 29 24 26 30 29 24 25 27 25 24 24 25 27 29 33 36 37 35 27 25 31 36
46 46 46 46 47 47 48 48 48 49 50 50 51 51 51 51 51 51 51 50 50 50 49 49 48 47 46 45 46 45 44 46 45 44 43 40 40 39 39 39 37 37 38 39 40 42 43 44 46 47 47 48 48 48 48 48 48 47 46 46 45 44 44 43 40 39 38 32 28 30 30 29 33 35 32 33 31 29 31 34 35 37 38 30 24 27 33 34
49 49 49 49 48 49 49 50 50 50 51 51 52 53 53 53 52 52 52 52 52 51 51 50 50 49 48 48 48 47 47 48 46 46 47 44 42 41 41 41 40 39 38 38 39 39 41 42 43 44 46 47 47 47 49 49 49 49 49 48 47 47 46 46 45 42 43 40 35 35 34 34 37 39 38 38 36 34 35 36 35 35 32 25 25 31 34 34
52 52 52 52 51 51 51 51 52 52 53 53 53 53 54 54 55 54 54 54 53 53 53 52 52 51 51 50 50 49 50 49 47 48 49 47 46 44 44 43 42 41 40 39 39 39 40 40 40 42 43 44 44 46 48 49 50 50 51 50 50 50 49 48 48 46 46 44 39 37 36 36 38 39 40 40 38 35 35 36 36 33 27 24 29 33 33 33
57 56 55 55 55 54 54 53 53 54 54 55 55 55 55 55 56 56 56 56 56 55 55 54 54 54 53 53 52 52 52 50 50 51 50 50 50 48 47 46 45 44 42 41 40 40 39 38 38 38 39 41 42 44 47 48 49 51 51 51 51 50 50 50 49 48 47 47 46 41 37 36 35 37 40 41 40 37 37 39 37 33 29 29 32 34 32 30
61 60 60 59 58 58 57 57 56 56 56 56 56 57 56 56 57 57 58 58 58 58 57 57 56 55 55 55 54 55 54 52 53 53 52 52 52 51 50 49 47 46 45 44 42 41 40 39 38 38 38 40 42 43 44 44 46 49 49 50 51 50 50 50 50 50 49 48 48 45 41 38 36 38 40 40 41 39 39 38 34 32 30 30 32 32 30 26
66 65 64 64 63 62 61 61 60 59 59 58 58 58 58 58 58 58 59 59 60 60 60 59 59 58 57 57 57 57 56 55 56 55 54 54 53 53 53 52 51 49 48 47 45 44 42 40 39 39 39 39 40 40 40 41 43 46 48 49 49 49 50 50 50 50 49 48 47 45 43 41 39 38 38 38 38 37 36 35 32 30 29 29 30 29 26 24
68 67 67 67 67 66 66 65 64 63 62 62 61 61 60 60 60 60 60 60 60 61 61 61 61 60 60 59 59 59 58 58 58 57 57 56 55 55 55 55 54 52 51 49 48 46 44 43 42 41 40 39 39 37 37 40 43 44 45 46 47 47 49 49 49 49 48 48 47 46 43 42 40 37 37 37 36 35 35 34 31 28 27 27 28 26 23 22
69 69 69 69 69 69 69 69 68 67 67 66 65 65 64 63 62 62 62 62 62 62 62 62 62 62 62 62 61 61 61 60 60 59 59 58 57 56 56 56 56 55 54 52 50 49 48 46 44 43 42 42 40 37 39 41 42 41 41 42 44 46 47 46 47 47 47 47 47 46 44 43 42 40 38 37 36 35 34 33 30 27 26 25 25 23 21 20
71 71 71 70 70 71 71 71 71 71 70 70 70 69 68 67 66 65 64 64 64 64 63 63 63 63 63 63 63 63 62 62 61 61 61 60 60 59 58 58 58 58 57 55 54 52 51 49 47 46 44 44 42 39 41 42 40 38 37 39 42 44 44 44 45 46 45 45 45 45 44 43 44 42 40 38 37 36 33 30 28 28 26 25 24 22 20 20
73 73 73 73 73 73 72 72 73 72 73 73 73 73 72 71 70 69 68 67 66 66 65 65 65 65 64 64 64 64 64 64 64 63 63 63 62 61 60 60 60 60 59 58 57 55 54 52 50 48 47 46 44 43 44 41 39 38 37 39 41 42 42 42 43 44 43 42 42 43 43 43 43 42 42 40 38 36 34 31 28 28 28 27 25 21 19 20
75 76 76 75 75 75 75 74 74 74 74 74 75 75 75 75 74 73 72 71 70 69 68 67 67 67 66 65 65 65 65 65 65 65 64 64 64 63 63 62 61 61 61 60 59 58 57 55 53 51 50 48 47 46 45 43 42 41 41 42 41 41 41 40 41 41 40 40 41 41 40 40 41 41 41 40 38 37 35 33 31 30 30 29 25 19 18 19
74 76 78 78 78 78 77 77 76 75 75 75 76 76 77 77 77 77 76 75 74 73 72 70 69 69 67 67 67 67 67 66 66 66 66 66 66 65 65 64 63 63 62 61 61 61 60 58 56 54 52 50 50 49 49 48 46 45 44 43 42 41 39 37 38 38 36 36 36 36 37 37 37 39 39 38 37 37 36 34 33 32 31 29 23 18 18 17
74 75 77 79 80 80 80 79 79 78 77 77 77 77 77 78 78 78 78 78 78 77 76 74 74 72 70 69 69 69 69 69 68 68 67 67 67 67 67 66 65 64 63 63 63 62 62 61 58 56 54 54 55 54 53 52 49 47 45 43 42 39 36 35 35 34 32 32 32 32 33 33 33 36 37 36 36 38 36 34 34 32 29 26 22 18 18 15
75 76 77 79 80 82 83 82 81 80 80 79 78 78 78 78 78 79 79 80 80 80 79 78 77 76 73 73 72 71 71 70 70 70 70 69 69 68 68 67 67 66 65 64 65 64 63 61 59 58 59 59 59 58 56 54 50 48 46 44 43 40 37 36 34 32 30 30 30 29 30 30 30 33 35 35 35 37 37 35 33 31 29 26 21 18 17 14
74 76 77 79 81 82 84 84 84 83 82 81 81 80 79 79 79 79 80 80 80 81 81 81 80 79 77 77 77 75 74 73 71 71 71 71 71 70 70 69 68 67 67 67 67 65 64 61 60 62 63 63 62 60 58 56 52 50 47 47 46 43 40 37 34 32 30 29 28 27 27 27 29 32 33 33 34 36 36 34 32 31 30 26 20 18 16 14
71 74 76 79 82 83 84 85 85 85 85 84 83 82 81 81 81 80 81 81 81 81 82 82 82 82 81 81 81 79 78 76 74 73 73 72 73 72 71 71 69 68 69 69 68 66 64 62 63 65 66 66 64 62 60 58 55 52 50 49 48 46 42 38 36 33 30 29 28 27 26 26 28 31 31 32 34 34 33 33 33 32 30 25 21 19 16 13
64 68 72 76 80 83 84 85 86 86 87 86 86 85 83 83 82 82 82 82 82 82 82 82 82 82 83 83 83 83 82 80 78 77 76 75 74 73 72 73 72 71 71 70 69 67 66 66 67 68 68 67 66 64 62 61 58 55 53 52 51 49 45 41 38 35 32 31 29 28 28 27 28 31 31 33 35 35 34 35 35 32 30 27 23 20 14 11
55 60 65 70 75 80 83 84 85 86 87 87 87 87 86 85 84 83 83 83 83 83 83 82 82 83 83 84 85 85 85 84 82 81 80 79 77 74 74 75 74 74 73 72 71 69 68 69 70 70 69 68 67 66 64 63 60 58 56 55 54 52 49 45 40 37 35 34 31 29 28 28 28 30 32 34 37 37 37 37 36 34 33 30 28 23 16 14
46 51 56 61 67 73 77 81 83 85 86 87 88 88 88 87 86 85 84 84 84 84 84 83 83 83 84 84 85 85 86 86 85 84 84 83 81 79 78 77 76 75 75 74 74 72 71 71 72 71 70 69 68 67 66 65 63 61 59 58 58 55 52 48 42 39 37 35 32 31 30 30 29 30 33 36 38 38 38 37 35 34 34 32 30 26 23 25
41 43 46 51 57 63 69 74 78 81 84 86 87 87 88 88 88 87 86 86 85 84 85 84 83 84 84 84 85 86 86 86 85 86 87 86 85 83 82 81 79 78 77 76 75 74 73 73 74 73 72 71 70 68 67 66 65 64 62 62 61 58 55 50 44 41 39 37 36 34 33 33 32 33 36 37 39 39 38 37 34 33 33 33 32 30 29 31
39 41 42 44 48 53 59 65 70 74 78 81 83 85 87 87 88 87 87 88 86 84 85 85 84 85 85 85 86 86 85 85 86 86 87 87 87 87 87 85 84 83 81 78 76 75 75 75 75 75 74 73 71 70 70 69 68 66 66 65 65 62 58 53 47 43 42 41 39 36 35 35 33 33 35 37 38 38 38 37 34 34 35 34 32 32 32 31
39 39 40 42 44 47 51 55 60 65 70 74 78 81 84 86 87 87 87 89 87 84 85 86 85 86 86 86 87 87 86 86 86 86 86 88 88 89 89 89 88 87 84 81 79 77 76 76 77 77 77 75 74 73 72 71 70 68 69 69 67 65 61 57 51 46 45 44 41 37 37 36 34 34 34 35 36 37 37 36 35 37 39 37 33 31 31 30
39 38 38 39 42 44 46 49 52 56 61 66 71 75 78 81 84 86 87 89 87 85 86 87 87 86 87 87 87 87 87 87 86 86 87 88 88 89 90 90 90 90 88 86 84 82 79 78 78 77 77 76 76 76 75 74 71 71 72 70 69 67 64 60 54 50 48 47 43 40 39 37 36 35 34 33 35 38 39 38 38 40 40 39 35 30 29 29
39 39 38 38 39 41 44 46 47 49 52 57 63 67 71 75 79 82 86 88 87 86 86 87 87 87 87 88 88 87 87 87 87 87 89 89 88 89 90 90 92 92 91 89 88 86 84 82 80 79 77 77 78 78 77 75 73 73 74 72 71 70 67 62 58 56 52 48 45 44 42 40 38 36 34 33 33 37 41 41 41 41 40 39 36 32 30 30
39 39 39 39 39 39 41 44 45 45 46 49 54 59 64 68 72 77 82 85 86 86 86 86 87 89 89 89 88 87 87 88 88 89 90 90 89 90 90 91 92 92 90 89 90 90 89 86 84 82 81 80 80 80 79 77 75 77 77 75 73 71 68 65 64 60 53 48 48 48 45 43 40 38 37 34 34 36 41 44 45 44 42 41 38 34 33 31
38 38 39 39 39 39 40 42 43 43 43 44 47 50 55 60 65 71 76 80 82 84 85 86 88 90 90 90 88 86 88 89 88 90 91 91 91 92 92 92 91 89 90 91 92 93 91 89 87 87 86 84 83 81 80 79 78 80 80 77 74 72 71 69 67 63 55 51 52 52 49 45 42 41 40 37 36 36 40 46 49 47 44 42 40 37 34 32
37 37 38 39 39 39 40 42 43 42 42 43 43 45 47 51 57 64 69 72 74 78 83 87 88 88 89 90 87 86 89 89 88 90 91 91 93 94 94 93 91 91 93 93 92 92 91 90 90 90 90 90 87 84 82 80 80 82 82 79 76 74 73 72 70 66 60 56 56 56 53 48 45 45 43 41 39 37 40 46 49 49 46 43 41 39 36 33
35 35 36 37 38 40 41 42 43 43 42 42 43 43 43 46 52 58 62 63 66 72 77 81 84 86 88 89 87 88 91 89 88 90 91 92 95 96 96 95 94 94 94 93 91 91 91 92 93 94 94 94 91 88 86 84 83 83 82 81 79 77 76 74 73 70 65 62 61 60 56 51 49 49 47 45 43 40 41 44 47 49 48 45 43 41 37 35
33 33 34 35 37 39 41 42 44 44 43 42 43 43 43 46 49 53 55 55 59 65 69 73 78 82 85 87 87 90 91 89 88 91 91 93 95 97 96 94 93 94 94 94 93 92 92 93 96 96 95 94 92 91 91 89 87 86 84 82 80 79 78 76 75 73 70 67 65 63 58 55 54 53 51 50 46 44 43 43 45 48 48 46 44 42 39 37
31 31 31 32 34 36 39 42 43 44 44 43 44 44 45 47 50 50 50 50 54 58 62 67 71 75 79 82 85 88 90 89 91 93 93 94 95 97 94 91 91 94 97 97 96 95 94 96 98 95 92 93 93 93 94 92 90 89 87 83 81 81 80 77 76 75 73 70 67 65 61 59 58 56 55 53 50 48 45 45 47 47 47 47 45 43 41 39
30 29 30 30 31 33 36 39 42 44 45 45 45 45 46 48 49 48 48 48 50 54 58 61 64 67 72 77 80 83 87 90 92 94 95 94 94 94 92 90 91 96 98 98 99 98 97 98 98 95 93 95 95 94 94 94 93 92 90 86 83 83 82 79 78 78 75 71 70 69 66 64 61 58 58 57 53 51 48 48 49 46 46 47 47 46 44 40
29 29 29 28 28 30 32 35 38 42 44 45 46 46 47 49 49 49 49 48 51 53 54 55 57 61 67 72 73 74 81 87 88 92 95 94 93 93 91 90 92 96 98 99 100 100 99 100 101 99 97 97 96 94 95 95 94 93 93 90 87 85 84 82 80 79 76 73 74 74 70 68 65 62 62 61 57 54 53 52 50 46 47 48 48 48 45 43
28 28 28 27 27 28 30 32 35 38 41 43 46 47 48 50 50 50 50 50 52 53 53 54 55 58 63 66 66 67 75 82 83 86 92 93 93 93 91 91 92 95 98 99 100 101 100 102 104 102 100 99 97 95 94 93 94 95 96 95 92 89 88 85 82 80 79 77 77 77 74 70 68 66 66 64 61 59 58 56 52 49 49 49 48 47 47 46
27 26 26 26 26 27 28 29 31 34 36 40 43 45 47 50 51 51 51 52 52 53 54 55 55 57 60 61 63 65 69 74 77 81 86 89 92 93 93 93 93 95 97 98 100 101 101 103 103 103 104 101 98 96 94 93 95 98 98 97 96 94 91 88 85 82 80 79 79 79 77 74 71 70 69 68 65 64 62 60 56 53 53 51 49 48 48 48
26 25 24 24 25 26 27 28 29 31 33 36 40 42 44 48 49 51 52 53 53 54 56 57 56 57 59 61 62 63 64 68 74 78 80 85 89 91 90 91 92 94 96 98 100 102 102 102 101 102 104 103 100 99 98 98 99 100 100 99 99 97 95 93 90 85 82 81 80 81 80 78 77 76 74 72 70 69 66 63 60 58 58 56 52 50 51 49
24 24 23 22 23 24 26 27 28 29 32 34 36 38 41 44 46 49 51 52 54 56 57 58 58 58 60 62 62 63 64 67 72 75 77 81 86 86 85 88 91 94 96 99 102 103 101 100 100 101 104 104 102 102 102 101 100 100 99 99 101 101 100 98 95 90 87 84 83 83 83 81 82 81 78 76 74 72 69 67 66 64 62 59 55 53 52 51
24 23 22 22 22 23 24 26 28 29 31 33 34 36 38 40 42 45 47 50 52 55 56 57 59 60 61 63 63 64 65 67 70 73 75 79 81 81 81 85 88 92 96 99 102 102 100 99 100 102 104 105 104 105 105 103 102 101 99 100 102 102 102 102 99 95 91 88 87 87 85 84 84 84 81 78 77 74 71 70 69 67 66 62 58 55 54 52
24 22 21 21 20 21 22 24 26 27 29 31 33 35 36 38 40 42 44 46 48 51 53 55 57 59 61 62 64 65 66 67 70 72 74 77 78 77 78 81 84 89 94 97 100 101 100 100 100 101 103 104 103 105 107 107 107 106 103 103 104 104 104 104 102 98 94 91 89 88 87 86 86 85 82 80 79 77 75 74 73 72 70 65 61 58 57 54
23 21 20 20 19 19 20 21 23 25 26 29 30 33 35 36 38 40 42 44 45 47 50 52 54 56 58 60 62 64 66 68 70 72 73 75 76 75 75 76 80 85 90 93 96 98 100 100 100 101 103 103 104 106 109 109 110 109 107 107 108 107 106 105 103 100 96 92 90 89 89 89 88 87 86 85 83 81 79 78 77 76 73 69 65 61 59 56
22 20 19 18 18 18 19 20 21 23 25 27 28 30 33 34 36 38 40 42 44 46 48 50 52 54 56 58 60 62 64 66 68 70 71 73 74 74 74 74 77 82 86 88 92 96 98 99 99 101 102 103 105 107 109 109 110 110 110 109 109 107 107 106 105 103 100 97 94 92 90 89 89 90 91 90 88 84 83 81 80 79 77 72 67 63 60 59
22 20 18 17 17 17 18 19 20 22 23 25 27 29 31 32 34 37 38 40 42 44 46 48 50 52 54 55 57 58 60 62 64 66 68 70 71 72 74 75 77 80 83 85 89 92 95 95 97 99 101 103 105 108 108 108 109 111 112 111 109 107 107 107 107 105 102 100 97 94 91 90 90 91 92 92 90 87 86 85 83 82 78 72 67 64 64 63
21 19 17 16 16 17 18 19 20 21 22 24 26 28 29 31 33 36 37 39 41 43 44 46 47 49 50 52 53 54 56 58 60 62 64 67 69 71 73 75 77 80 83 84 87 90 92 91 93 96 99 101 104 108 109 109 110 112 114 113 112 111 110 109 107 105 103 100 97 94 92 92 92 92 93 92 90 89 88 86 84 83 80 75 72 70 70 69
22 19 17 16 16 16 16 18 19 20 22 24 25 27 29 31 33 34 36 37 39 40 42 43 45 46 46 47 48 50 53 55 58 61 63 65 68 70 71 74 77 79 81 82 85 88 89 88 89 92 95 98 102 106 108 109 110 113 114 115 115 116 115 113 109 106 104 101 99 97 96 96 95 94 94 92 91 91 90 86 83 85 84 80 77 75 74 71
24 20 18 16 15 15 15 16 17 19 21 23 25 27 28 30 31 33 34 36 37 38 39 40 40 40 41 43 46 48 51 54 57 59 61 63 65 66 67 70 72 75 76 78 81 85 86 85 86 89 91 93 97 102 107 109 110 111 113 114 116 117 117 115 110 107 105 103 101 101 101 101 99 96 96 94 91 91 91 86 84 87 89 84 80 78 76 72
25 21 19 16 15 14 13 14 15 17 19 21 23 25 27 28 29 30 31 32 32 33 34 34 35 36 38 42 45 48 50 53 55 56 57 58 59 60 62 64 66 69 72 75 78 81 83 83 85 87 88 89 93 99 104 108 110 111 111 112 114 117 118 117 112 108 106 105 105 105 105 105 102 99 98 97 93 90 90 88 87 90 92 87 81 81 79 75
28 24 21 19 17 17 16 16 16 17 18 19 21 22 24 25 26 26 27 28 28 29 30 31 33 36 38 41 44 46 49 51 52 51 51 51 52 54 56 58 60 63 67 71 74 78 81 82 83 86 87 87 91 97 102 107 110 110 109 111 114 117 118 118 115 110 108 109 109 109 109 109 107 104 101 99 96 91 90 91 92 94 94 87 81 82 82 78
Wind_Direction
252 250 247 245 244 243 243 243 243 243 243 243 243 243 243 243 244 244 244 242 241 238 234 229 226 222 220 219 218 218 219 218 217 215 215 217 219 223 225 225 225 225 225 225 225 224 223 222 221 221 221 221 221 221 222 222 223 226 226 226 229 231 234 235 237 241 244 243 245 252 262 267 268 276 282 282 285 289 292 292 295 298 302 305 305 307 308 309
254 251 249 247 245 244 243 242 242 243 243 242 242 242 242 242 242 243 243 243 241 240 237 233 228 224 222 221 219 219 219 219 219 217 216 216 217 220 225 226 226 227 227 227 227 226 225 224 224 223 223 223 223 223 223 223 224 226 227 228 229 232 234 239 239 242 250 250 254 253 251 257 263 274 277 277 284 290 292 292 293 297 299 300 304 306 303 306
255 253 251 248 246 244 243 242 242 242 242 242 241 241 241 241 241 241 242 242 242 240 239 236 232 227 223 222 221 220 220 220 219 218 219 218 215 216 222 226 227 227 227 228 229 228 227 227 227 227 226 226 226 226 225 226 227 228 229 230 232 233 234 239 238 241 251 254 262 260 248 256 267 273 269 273 286 293 292 291 291 293 296 297 303 304 299 306
258 255 253 250 248 246 244 242 242 242 241 241 241 240 240 240 240 240 240 240 241 240 239 237 235 230 226 223 222 221 221 222 220 218 220 221 218 215 217 223 228 228 228 230 230 229 229 229 229 229 229 229 228 228 228 228 229 230 232 233 234 235 235 238 239 241 244 243 250 253 250 259 263 261 266 278 284 285 286 286 288 291 294 298 300 297 297 309
258 257 255 253 250 248 246 244 242 241 241 241 241 240 240 239 239 239 239 239 239 239 238 238 236 233 229 225 223 222 223 224 221 218 219 221 220 218 216 218 225 228 228 230 231 231 230 230 230 230 230 230 230 230 230 230 231 231 232 233 235 236 237 238 238 239 239 239 245 250 253 256 253 257 269 279 280 282 282 280 284 289 294 299 298 290 298 310
258 257 256 254 253 250 248 246 244 243 242 241 240 240 240 239 239 238 238 238 237 237 237 237 236 234 232 228 225 223 223 224 222 220 219 219 221 220 218 217 220 226 227 228 231 231 231 231 231 231 231 232 232 232 232 232 231 231 231 232 233 234 236 236 235 236 237 242 249 253 253 252 259 266 267 267 270 275 273 273 281 286 293 296 289 291 303 307
258 256 255 254 253 252 250 248 246 245 243 242 241 240 240 239 239 239 238 237 237 236 236 236 235 235 232 230 228 225 225 224 222 222 220 218 220 221 221 219 218 223 225 226 228 230 231 231 232 232 232 232 232 233 233 233 233 233 232 232 233 233 235 236 235 235 236 238 243 247 247 249 258 263 261 263 265 263 265 273 279 286 293 287 277 295 303 303
258 257 256 254 253 252 251 250 248 247 245 244 243 242 240 239 239 239 238 238 237 237 235 235 235 235 233 232 230 228 228 225 222 224 222 219 220 222 222 221 220 221 224 225 225 227 229 230 231 232 232 232 233 233 234 234 234 234 234 233 233 233 234 236 235 234 235 236 240 242 242 244 252 259 262 262 262 263 266 271 278 286 289 275 275 295 298 298
257 257 256 255 254 252 251 250 249 248 247 246 245 243 242 241 240 239 239 238 238 237 236 235 234 234 234 233 231 230 229 226 224 225 223 220 221 222 223 222 221 221 222 224 224 224 226 228 229 231 232 233 233 234 235 235 235 235 235 234 234 234 234 235 236 234 234 234 237 239 242 246 253 260 262 259 260 263 264 269 277 282 279 274 284 294 294 297
258 256 255 255 254 253 252 251 249 248 247 247 246 245 244 242 241 240 239 239 238 238 237 236 235 234 234 233 233 232 230 228 227 226 224 222 221 222 223 223 222 222 221 223 224 223 224 226 226 228 230 231 231 233 234 235 236 236 236 236 236 236 236 237 237 237 236 235 237 240 244 247 251 257 258 258 259 262 266 269 272 273 272 277 287 290 291 294
259 257 256 255 254 253 252 251 250 249 248 247 246 245 244 243 243 242 241 240 239 238 238 237 236 235 234 234 233 233 231 230 229 227 226 224 222 222 223 224 223 222 222 221 223 223 223 224 224 225 226 228 230 231 233 235 236 237 237 238 238 238 238 238 238 239 238 238 239 241 242 241 243 250 255 257 259 261 264 267 267 269 271 275 281 283 284 287
260 258 257 255 254 253 252 251 250 249 248 247 246 245 245 244 243 242 241 241 240 239 238 238 237 236 236 235 234 234 232 232 231 229 228 226 224 223 223 224 224 223 223 222 222 222 222 223 223 224 224 225 228 230 232 233 234 236 237 237 238 239 239 239 239 240 240 240 241 240 241 240 239 244 251 254 255 256 259 262 264 268 270 270 273 275 278 284
260 258 257 256 254 253 252 251 250 249 248 248 247 246 245 243 243 242 242 241 240 240 239 238 237 237 236 236 235 235 233 233 232 230 229 228 226 225 224 224 224 224 224 223 222 222 221 222 222 223 223 223 225 226 229 230 232 235 236 238 238 239 239 239 240 241 241 242 242 242 242 242 239 240 245 247 248 251 254 257 260 263 265 266 268 271 276 284
261 259 257 256 254 253 252 251 250 249 248 248 247 246 245 244 243 242 241 241 240 240 239 238 238 237 236 236 236 236 235 234 233 232 231 229 228 227 226 225 225 225 225 224 224 222 221 221 221 223 223 224 222 222 226 230 231 233 235 237 238 238 239 239 240 241 242 242 243 244 244 243 241 239 241 243 245 247 249 252 255 257 259 263 266 266 270 279
261 259 258 256 254 253 252 250 249 249 248 248 247 246 245 244 243 242 241 241 240 240 239 239 238 237 237 236 236 236 236 235 234 234 232 231 230 229 228 227 226 225 225 225 225 224 222 221 221 221 222 225 223 220 225 229 230 232 232 235 236 238 238 239 240 240 241 242 243 244 243 243 243 241 241 242 243 244 245 247 249 252 255 259 261 260 265 273
261 260 259 257 255 253 252 250 249 248 247 247 247 246 245 244 243 242 241 241 240 240 239 238 238 237 237 236 236 235 236 236 235 235 234 232 231 230 229 228 227 226 225 225 225 225 224 222 221 220 221 224 224 222 224 226 228 229 229 231 233 236 237 237 239 240 240 241 241 242 242 241 242 241 241 241 242 243 244 243 243 247 251 253 255 254 257 267
261 260 259 257 256 254 252 251 249 248 247 246 246 246 245 244 243 243 242 241 240 240 239 239 238 237 237 236 236 235 235 235 235 235 235 234 232 231 230 229 228 227 226 225 225 225 225 224 223 221 221 222 224 224 225 224 224 226 227 230 231 232 235 236 238 239 240 240 241 241 242 241 240 240 240 239 239 240 242 241 239 241 245 249 250 246 247 262
260 258 257 256 256 255 253 251 250 248 247 246 245 245 245 244 244 243 242 241 240 240 240 239 238 238 237 236 236 236 235 235 235 235 235 234 233 232 231 230 229 229 228 226 226 225 225 225 224 223 222 222 223 224 225 223 222 224 228 230 231 232 233 235 237 238 239 240 240 241 240 238 238 237 237 236 234 235 236 235 234 237 241 245 246 241 242 256
259 257 255 254 254 253 253 252 250 249 247 246 245 244 244 244 243 243 243 242 241 240 239 239 239 238 237 237 236 236 235 235 235 235 235 234 234 233 232 231 230 229 229 228 227 226 226 226 225 225 224 224 222 222 224 224 222 224 226 229 231 231 231 233 235 237 237 238 238 238 237 235 233 232 231 229 229 230 231 228 229 232 236 239 239 236 241 251
256 254 253 252 251 250 250 250 250 249 247 246 245 244 244 243 243 243 243 242 241 240 240 239 239 238 237 238 237 236 235 235 234 235 235 235 234 234 233 232 231 230 229 229 228 227 226 226 226 226 226 225 224 223 224 225 224 224 225 228 231 229 228 228 230 231 231 233 233 233 233 231 227 226 226 224 223 224 223 222 225 228 229 230 227 227 234 241
254 252 251 250 249 248 248 248 248 248 247 246 245 244 244 243 242 242 242 242 241 241 240 239 239 238 237 237 238 236 236 235 234 234 234 235 235 234 233 232 231 231 230 230 229 228 227 226 226 227 227 227 226 225 225 225 224 224 224 227 229 228 227 226 226 226 226 228 229 229 229 226 222 221 220 219 216 215 217 218 220 222 223 220 214 216 222 228
255 253 250 249 248 247 246 246 246 246 246 245 245 244 243 243 242 241 241 241 241 241 240 240 239 239 238 237 238 237 236 236 235 234 234 234 234 234 234 233 232 231 230 230 230 229 228 227 227 227 227 227 227 226 226 225 224 223 224 226 228 229 227 224 223 222 222 223 224 224 224 221 218 215 212 211 210 212 215 216 216 216 216 213 207 206 209 217
259 256 253 251 249 249 248 246 245 245 244 244 244 243 242 242 242 241 241 241 241 240 240 240 239 239 238 238 237 237 237 236 235 235 235 234 234 234 234 234 233 232 231 230 230 229 228 228 228 228 228 228 227 227 227 227 225 223 224 225 227 228 226 223 220 218 217 218 219 219 218 217 213 211 209 209 208 210 211 212 213 210 209 209 204 200 199 207
264 260 257 254 252 251 250 249 247 246 245 244 243 243 242 242 241 241 241 241 241 240 239 239 239 239 239 238 238 237 237 236 236 235 235 235 234 233 234 234 233 233 232 230 229 229 228 228 229 229 229 228 228 228 227 227 226 225 224 225 226 227 226 223 218 215 216 217 216 215 215 215 211 209 211 210 207 206 206 207 210 208 206 207 200 192 189 197
270 265 261 258 255 253 251 250 249 248 247 245 244 243 242 242 241 240 240 240 240 240 240 239 239 239 239 239 238 237 237 236 236 236 236 235 234 234 233 234 233 233 232 231 230 228 228 229 229 229 229 229 229 228 227 227 227 226 225 226 226 226 226 223 217 213 215 216 214 211 211 212 209 207 209 207 204 203 203 205 209 208 205 204 198 190 188 196
274 269 265 262 259 256 254 252 250 249 248 247 246 245 244 243 242 241 240 240 239 239 240 240 239 239 238 238 238 238 237 237 236 236 236 236 235 234 234 234 233 233 232 232 231 229 228 229 230 230 229 229 229 228 228 227 227 226 226 226 227 226 225 224 218 211 212 214 213 210 209 210 207 204 206 206 205 204 204 204 205 206 202 200 200 197 195 199
277 272 269 265 262 259 257 254 252 250 249 248 247 246 245 244 243 242 241 241 239 238 240 240 239 239 239 239 239 238 238 237 236 236 236 236 236 235 235 234 233 233 232 231 231 230 229 229 230 230 230 229 229 229 228 228 227 226 226 226 227 226 224 224 219 211 209 212 213 210 210 211 208 206 208 208 208 207 206 204 204 205 203 201 203 204 202 202
279 273 269 266 264 262 260 256 254 252 250 249 247 246 245 244 243 243 242 242 240 238 239 240 239 239 239 239 239 238 237 237 236 236 236 236 236 236 235 235 234 233 232 232 231 231 230 230 230 230 230 229 228 228 228 228 227 226 226 226 227 227 224 223 220 212 208 211 212 209 210 212 209 209 210 209 209 207 205 205 206 206 206 206 206 205 205 203
280 275 270 265 263 262 261 259 256 253 251 249 248 247 245 244 243 242 242 242 241 239 238 239 238 238 238 238 238 238 238 237 237 236 237 236 236 236 236 235 235 234 233 232 231 231 230 230 230 230 230 230 229 229 228 228 227 227 227 226 226 227 225 223 221 215 209 208 210 210 210 212 211 210 210 209 209 206 203 203 205 208 209 208 205 203 202 202
279 275 271 267 263 261 260 260 258 255 253 250 248 247 246 245 243 242 242 241 241 239 238 239 239 238 238 238 238 238 238 238 237 237 237 236 236 236 235 235 235 234 233 232 232 231 230 230 230 230 230 230 230 229 229 228 227 228 228 226 226 227 225 223 221 218 211 204 207 210 209 211 212 211 210 209 210 209 205 202 202 205 206 204 204 203 201 202
276 273 270 267 264 261 259 259 258 256 254 251 249 247 246 245 244 243 242 241 240 240 239 238 239 239 238 238 237 237 237 237 237 237 237 236 236 236 235 235 235 235 234 233 233 232 230 229 230 230 230 230 230 229 228 228 227 228 229 227 225 226 225 223 222 220 212 202 205 211 209 209 212 212 210 209 210 210 207 203 200 200 202 203 206 206 204 203
275 271 267 265 263 261 259 258 257 255 254 253 250 248 246 245 244 243 242 241 240 239 239 238 237 238 239 238 237 237 237 237 236 237 237 237 237 236 235 235 235 235 235 234 233 232 231 229 229 230 230 230 230 230 229 227 226 227 228 227 226 225 224 223 222 220 214 205 205 211 209 206 210 213 210 209 209 209 207 204 199 198 203 206 207 206 205 205
276 270 265 262 260 258 257 257 256 254 252 252 250 248 247 245 244 243 241 240 240 239 238 238 237 237 238 239 238 237 238 237 236 236 236 237 237 236 235 235 234 234 234 233 232 233 232 230 229 229 229 229 229 229 230 228 227 227 228 227 225 224 223 223 222 219 214 210 208 209 209 204 207 213 212 209 209 207 207 205 202 203 206 207 205 205 205 205
277 271 266 261 257 255 254 254 255 253 251 250 249 248 246 245 244 243 242 240 239 239 238 239 238 238 238 238 238 238 238 237 236 236 236 236 236 236 235 234 234 234 234 233 232 233 233 231 230 228 228 228 228 228 229 229 228 227 227 227 226 224 222 221 222 219 214 212 210 209 207 203 205 212 213 211 209 207 207 206 205 205 204 203 205 205 203 204
280 273 267 262 257 253 252 251 251 252 250 249 248 246 245 245 245 245 243 241 239 239 239 239 238 238 237 237 237 237 238 238 237 237 236 235 236 235 234 234 234 235 235 234 233 232 232 232 231 229 228 228 227 228 228 228 228 228 227 226 226 226 224 221 221 219 215 213 212 209 205 203 205 209 212 212 210 208 207 206 206 205 201 201 206 207 203 203
284 277 270 264 259 254 251 250 249 250 249 248 247 245 244 244 245 245 245 242 241 239 238 238 238 238 237 237 236 237 237 237 237 238 237 236 236 236 234 233 234 235 234 234 233 231 232 232 231 230 229 228 227 227 228 228 229 229 227 226 225 226 225 222 220 219 215 212 213 211 206 204 205 208 212 213 210 209 207 207 208 205 203 203 205 209 205 202
288 281 273 266 262 257 253 250 249 248 248 247 247 245 245 246 246 246 245 244 243 241 239 238 238 238 238 237 236 236 237 236 236 238 237 237 237 236 235 233 233 234 234 233 233 231 231 232 232 230 229 229 227 226 227 227 228 229 229 227 225 226 225 222 220 219 216 211 212 212 207 205 205 206 212 213 211 211 209 209 209 204 205 205 203 208 207 204
292 284 277 270 265 260 255 252 249 248 247 246 246 245 245 246 246 246 245 243 243 242 241 239 238 238 238 238 236 236 237 236 236 237 238 237 237 237 235 233 233 234 234 233 233 232 230 231 232 229 228 228 226 225 226 227 227 228 229 228 226 226 226 223 220 220 216 211 212 213 209 206 205 205 210 213 211 211 211 211 209 205 207 205 201 205 207 205
294 287 281 276 269 262 257 253 250 248 247 246 245 244 244 245 245 245 244 243 243 243 243 241 238 238 239 238 237 235 237 237 235 236 238 238 237 237 236 234 233 234 234 233 233 232 230 230 231 230 228 227 226 225 225 226 226 226 227 227 225 225 226 224 221 219 217 212 211 213 211 208 206 205 209 213 212 211 212 212 209 208 209 206 200 203 206 205
297 290 284 279 273 266 261 256 252 250 247 246 246 244 243 244 244 245 245 244 244 244 244 243 240 240 240 240 237 235 237 239 237 236 237 238 237 236 236 235 233 234 235 234 233 232 231 230 230 230 229 227 225 225 225 225 225 225 226 226 225 224 224 224 222 219 218 214 211 212 212 209 208 207 207 211 212 211 213 213 210 209 210 206 200 202 206 205
301 295 289 281 275 270 264 259 255 251 248 247 246 245 243 243 243 244 244 245 245 244 244 244 242 242 242 241 238 236 236 238 239 237 236 237 237 235 235 235 235 234 235 235 234 233 231 230 230 230 230 228 225 225 224 224 224 225 224 225 225 224 223 223 222 219 218 216 212 212 212 211 210 208 206 209 211 211 212 213 211 210 210 207 200 201 206 205
306 300 293 285 277 271 266 262 257 253 250 247 246 245 244 244 243 244 244 244 244 244 244 244 244 243 242 242 241 238 236 236 239 239 237 237 237 236 235 235 235 235 235 235 235 233 230 229 229 230 230 229 226 225 224 224 225 225 224 224 225 224 223 223 221 218 216 215 213 212 212 212 212 210 207 207 211 212 211 212 212 211 211 208 202 202 206 205
311 304 297 288 281 273 267 264 259 256 252 250 248 247 246 245 244 244 244 244 244 244 244 244 244 244 243 243 243 241 239 238 238 240 240 239 237 236 234 234 235 235 235 235 235 233 231 230 229 229 229 228 226 225 224 223 224 225 224 224 225 224 223 223 222 219 215 213 213 212 210 212 214 212 209 208 210 212 212 213 214 214 212 210 204 203 206 206
316 308 301 292 284 277 270 266 262 258 254 252 250 249 248 247 246 245 245 245 244 245 245 245 245 245 245 244 244 243 243 241 240 240 240 241 239 237 234 233 234 235 235 235 235 234 233 230 228 228 229 228 226 225 224 223 222 223 222 223 224 223 223 223 222 220 217 214 213 211 209 211 214 213 210 209 209 211 212 213 215 216 215 212 207 205 207 207
320 313 305 296 289 281 272 268 264 260 257 254 252 250 249 249 248 247 247 247 246 246 246 246 245 245 245 244 244 244 243 243 242 241 241 241 241 239 236 234 233 235 235 235 235 235 233 230 227 226 227 228 227 225 224 223 222 222 221 222 223 222 221 221 222 221 219 216 214 212 210 210 213 212 211 210 209 209 212 213 214 217 217 213 209 206 208 208
326 318 310 301 294 286 277 271 266 262 260 257 255 253 251 250 250 249 249 248 248 247 247 247 246 245 245 245 245 245 244 244 243 243 243 243 242 241 239 236 234 235 235 236 236 236 233 231 228 226 226 226 226 226 224 223 222 222 221 221 223 223 221 220 220 220 218 217 215 214 211 211 213 212 211 211 208 208 211 212 213 216 218 215 211 208 208 209
332 324 317 308 299 290 282 276 270 265 262 260 258 256 255 254 253 252 251 250 250 249 248 248 248 248 248 248 247 247 247 246 246 245 245 244 243 242 241 239 237 235 235 235 236 236 234 231 229 227 225 225 226 226 224 222 221 221 221 221 222 223 222 221 220 219 218 216 215 214 213 212 213 214 213 212 210 208 210 213 214 216 218 216 213 210 209 211
339 331 326 316 306 297 289 282 277 272 268 264 262 260 258 257 256 255 254 253 253 252 252 251 251 251 251 251 250 250 249 249 248 246 245 244 243 241 240 239 238 236 235 234 234 235 234 232 230 228 226 225 225 226 225 222 221 220 220 219 219 221 222 221 219 219 218 217 215 214 214 213 213 214 214 213 211 210 211 214 215 218 218 216 215 213 210 211
346 339 333 324 314 305 296 288 282 277 274 270 267 265 263 261 260 259 259 258 257 256 255 255 254 254 254 253 253 252 251 249 248 246 245 244 242 241 239 238 238 237 236 235 234 234 234 232 230 228 226 225 224 225 225 223 221 220 219 218 218 219 221 220 217 217 217 216 215 214 214 214 214 214 213 212 212 212 212 213 215 218 220 217 215 215 214 212
352 346 341 332 323 315 305 296 289 283 279 276 273 271 268 267 265 263 262 261 261 260 260 259 259 258 257 256 253 252 250 249 248 247 245 244 244 243 241 240 239 238 238 237 235 235 234 232 231 228 226 224 224 224 225 224 222 221 220 219 218 218 220 220 217 215 215 215 215 214 214 214 214 214 214 212 212 212 211 211 214 218 221 218 214 216 216 213
354 351 346 339 331 324 314 304 297 291 287 283 279 277 274 272 270 269 268 268 266 265 264 263 261 259 257 255 253 252 251 251 250 249 248 248 247 246 244 242 241 239 237 237 236 235 234 232 231 229 225 223 223 224 224 223 222 220 219 219 219 218 219 220 217 214 214 214 214 214 214 214 213 213 214 212 211 211 210 209 212 217 220 220 216 215 217 215
356 354 351 346 341 335 328 320 312 305 299 294 290 286 283 280 278 275 273 272 269 266 263 260 257 255 254 254 254 255 255 254 254 254 254 253 251 249 247 244 241 239 237 235 234 234 233 231 230 229 226 222 222 223 223 222 221 219 218 218 218 218 218 218 217 215 213 213 214 213 213 213 212 212 213 212 210 210 209 209 212 217 219 219 217 215 216 215